Terminal Aerodrome Forecast
Issued by NWS

Home | Current Version | Previous Version | Text Only | Print | Product List | Glossary Off
Versions: 1 2 3 4 5 6 7 8 9 10 11 12 13 14 15 16 17 18

000
FTUS43 KMPX 180500
TAFRWF
TAF
KRWF 180522Z 1806/1906 29015KT P6SM BKN035
     FM181000 28008KT P6SM BKN050 BKN150
     FM182100 21011KT P6SM BKN100=

USA.gov is the U.S. government's official web portal to all federal, state and local government web resources and services.